timestamp,surface_pressure_avg,surface_temp_avg,battery_voltage,lat,long
2024-01-11 00:09:00+00:00,342.6047,1.88,11.53,47.84626,-54.09684
2024-01-11 00:19:01+00:00,342.5630000000001,1.88,11.53,47.84626,-54.09684
2024-01-11 00:29:01+00:00,334.9379,1.87,11.53,47.84626,-54.09684
2024-01-11 00:39:01+00:00,327.1563,1.9,11.53,47.84626,-54.09684
2024-01-11 00:49:01+00:00,330.3463,1.9,11.53,47.84626,-54.09684
2024-01-11 00:59:01+00:00,310.8513,1.9,11.53,47.84626,-54.09684
2024-01-11 01:09:01+00:00,293.7997,1.8,11.53,47.84626,-54.09684
2024-01-11 01:19:00+00:00,304.9163,1.8,11.53,47.84626,-54.09684
2024-01-11 01:29:00+00:00,327.168,1.8,11.53,47.84626,-54.09684
2024-01-11 01:39:00+00:00,312.5547,1.7,11.53,47.84626,-54.09684
2024-01-11 01:49:00+00:00,287.2747,1.7,11.53,47.84626,-54.09684
2024-01-11 01:59:00+00:00,282.2114,1.7,11.53,47.84626,-54.09684
2024-01-11 02:09:00+00:00,294.418,1.7,11.53,47.84626,-54.09684
2024-01-11 02:19:00+00:00,289.653,1.7,11.53,47.84626,-54.09684
2024-01-11 02:29:00+00:00,278.303,1.7,11.53,47.84626,-54.09684
2024-01-11 02:39:00+00:00,276.9914,1.6,11.53,47.84626,-54.09684
2024-01-11 02:49:00+00:00,262.9881,1.6,11.53,47.84626,-54.09684
2024-01-11 02:59:00+00:00,236.1714,1.67,11.53,47.84626,-54.09684
2024-01-11 03:09:00+00:00,234.9314,1.69,11.53,47.84626,-54.09684
2024-01-11 03:19:00+00:00,235.9581,1.6,11.53,47.84626,-54.09684
2024-01-11 03:29:00+00:00,221.0298,1.6,11.53,47.84626,-54.09684
2024-01-11 03:39:00+00:00,212.9181,1.6,11.53,47.84626,-54.09684
2024-01-11 03:49:00+00:00,222.8515,1.6,11.53,47.84626,-54.09684
2024-01-11 03:59:00+00:00,242.5731,1.59,11.53,47.84626,-54.09684
2024-01-11 04:09:00+00:00,239.9847,1.6,11.53,47.84626,-54.09684
2024-01-11 04:19:00+00:00,218.3281,1.6,11.46,47.84626,-54.09684
2024-01-11 04:29:00+00:00,204.5231,1.68,11.46,47.84626,-54.09684
2024-01-11 04:39:00+00:00,219.2448,1.68,11.46,47.84626,-54.09684
2024-01-11 04:49:00+00:00,236.9781,1.6,11.46,47.84626,-54.09684
2024-01-11 04:59:00+00:00,218.7198,1.64,11.46,47.84626,-54.09684
2024-01-11 05:09:00+00:00,193.2398,1.7,11.46,47.84626,-54.09684
2024-01-11 05:19:00+00:00,200.4447,1.7,11.46,47.84626,-54.09684
2024-01-11 05:29:00+00:00,212.2264,1.7,11.46,47.84626,-54.09684
2024-01-11 05:39:00+00:00,221.5432,1.62,11.46,47.84626,-54.09684
2024-01-11 05:49:00+00:00,232.7381,1.6,11.46,47.84626,-54.09684
2024-01-11 05:59:00+00:00,232.2698,1.62,11.46,47.84626,-54.09684
2024-01-11 06:09:00+00:00,227.9848,1.65,11.46,47.84626,-54.09684
2024-01-11 06:19:00+00:00,247.8682,1.6,11.46,47.84626,-54.09684
2024-01-11 06:29:00+00:00,244.4064,1.6,11.46,47.84626,-54.09684
2024-01-11 06:39:00+00:00,233.2098,1.6,11.46,47.84626,-54.09684
2024-01-11 06:49:00+00:00,243.1147,1.6,11.46,47.84626,-54.09684
2024-01-11 06:59:00+00:00,247.1681,1.62,11.46,47.84626,-54.09684
2024-01-11 07:09:00+00:00,247.5614,1.66,11.46,47.84626,-54.09684
2024-01-11 07:19:00+00:00,254.3548,1.68,11.46,47.84626,-54.09684
2024-01-11 07:29:00+00:00,263.0498,1.7,11.46,47.84626,-54.09684
2024-01-11 07:39:00+00:00,275.9664,1.69,11.46,47.84626,-54.09684
2024-01-11 07:49:00+00:00,281.3531,1.68,11.46,47.84626,-54.09684
2024-01-11 07:59:00+00:00,287.9097,1.7,11.46,47.84626,-54.09684
2024-01-11 08:09:00+00:00,290.4131,1.7,11.46,47.84626,-54.09684
2024-01-11 08:19:00+00:00,292.0264,1.7,11.46,47.84626,-54.09684
2024-01-11 08:29:00+00:00,299.668,1.7,11.46,47.84626,-54.09684
2024-01-11 08:39:00+00:00,311.0297,1.7,11.46,47.84626,-54.09684
2024-01-11 08:49:00+00:00,315.7697,1.7,11.46,47.84626,-54.09684
2024-01-11 08:59:00+00:00,322.5914,1.7,11.46,47.84626,-54.09684
2024-01-11 09:09:00+00:00,334.3279,1.7,11.46,47.84626,-54.09684
2024-01-11 09:19:00+00:00,344.69300000000015,1.7,11.46,47.84626,-54.09684
2024-01-11 09:29:00+00:00,336.9514,1.72,11.46,47.84626,-54.09684
2024-01-11 09:39:00+00:00,351.8995,1.77,11.46,47.84626,-54.09684
2024-01-11 09:49:00+00:00,377.1462,1.75,11.46,47.84626,-54.09684
2024-01-11 09:59:00+00:00,377.9613,1.7,11.46,47.84626,-54.09684
2024-01-11 10:09:00+00:00,371.9346,1.75,11.46,47.84626,-54.09684
2024-01-11 10:19:00+00:00,381.5213,1.8,11.46,47.84626,-54.09684
2024-01-11 10:29:00+00:00,390.3196,1.8,11.46,47.84626,-54.09684
2024-01-11 10:39:00+00:00,385.8929,1.8,11.46,47.84626,-54.09684
2024-01-11 10:49:00+00:00,389.9646,1.83,11.46,47.84626,-54.09684
2024-01-11 10:59:00+00:00,400.4229,1.82,11.46,47.84626,-54.09684
2024-01-11 11:09:00+00:00,399.9547,1.86,11.46,47.84626,-54.09684
2024-01-11 11:19:00+00:00,388.3129,1.86,11.46,47.84626,-54.09684
2024-01-11 11:29:00+00:00,389.8995,1.87,11.46,47.84626,-54.09684
2024-01-11 11:39:00+00:00,397.8929,1.87,11.46,47.84626,-54.09684
2024-01-11 11:49:00+00:00,393.6279,1.87,11.46,47.84626,-54.09684
2024-01-11 11:59:00+00:00,393.0646,1.85,11.46,47.84626,-54.09684
2024-01-11 12:09:00+00:00,393.2328,1.81,11.46,47.84626,-54.09684
2024-01-11 12:19:00+00:00,388.6863,1.8,11.46,47.84626,-54.09684
2024-01-11 12:29:00+00:00,373.8362,1.8,11.46,47.84626,-54.09684
2024-01-11 12:39:00+00:00,377.2845,1.8,11.46,47.84626,-54.09684
2024-01-11 12:49:00+00:00,384.6979,1.8,11.46,47.84626,-54.09684
2024-01-11 12:59:00+00:00,364.5563,1.7,11.46,47.84626,-54.09684
2024-01-11 13:09:00+00:00,347.3179,1.72,11.46,47.84626,-54.09684
2024-01-11 13:19:00+00:00,347.74300000000005,1.79,11.46,47.84626,-54.09684
2024-01-11 13:29:00+00:00,346.9963,1.79,11.46,47.84626,-54.09684
2024-01-11 13:39:00+00:00,326.4463,1.7,11.46,47.84626,-54.09684
2024-01-11 13:49:00+00:00,320.413,1.73,11.46,47.84626,-54.09684
2024-01-11 13:59:00+00:00,326.5413,1.76,11.46,47.84626,-54.09684
2024-01-11 14:09:00+00:00,316.5364,1.7,11.46,47.84626,-54.09684
2024-01-11 14:19:00+00:00,295.258,1.73,11.46,47.84626,-54.09684
2024-01-11 14:29:00+00:00,293.988,1.78,11.46,47.84626,-54.09684
2024-01-11 14:39:00+00:00,295.8813,1.78,11.46,47.84626,-54.09684
2024-01-11 14:49:00+00:00,280.868,1.77,11.46,47.84626,-54.09684
2024-01-11 14:59:00+00:00,271.0064,1.8,11.46,47.84626,-54.09684
2024-01-11 15:09:00+00:00,275.4498,1.8,11.46,47.84626,-54.09684
2024-01-11 15:19:00+00:00,272.7664,1.8,11.46,47.84626,-54.09684
2024-01-11 15:29:00+00:00,255.1647,1.8,11.46,47.84626,-54.09684
2024-01-11 15:39:00+00:00,245.0081,1.8,11.46,47.84626,-54.09684
2024-01-11 15:49:00+00:00,244.6497,1.8,11.46,47.84626,-54.09684
2024-01-11 15:59:00+00:00,233.463,1.8,11.46,47.84626,-54.09684
2024-01-11 16:09:00+00:00,220.6164,1.8,11.46,47.84626,-54.09684
2024-01-11 16:19:00+00:00,221.6548,1.8,11.46,47.84626,-54.09684
2024-01-11 16:29:00+00:00,210.8931,1.8,11.46,47.84626,-54.09684
2024-01-11 16:39:00+00:00,190.3881,1.84,11.46,47.84626,-54.09684
2024-01-11 16:49:00+00:00,198.8848,1.8,11.46,47.84626,-54.09684
2024-01-11 16:59:00+00:00,209.5464,1.8,11.46,47.84626,-54.09684
2024-01-11 17:09:00+00:00,191.5265,1.84,11.46,47.84626,-54.09684
2024-01-11 17:19:00+00:00,180.5331,1.86,11.46,47.84626,-54.09684
2024-01-11 17:29:00+00:00,192.5298,1.86,11.46,47.84626,-54.09684
2024-01-11 17:39:00+00:00,191.0048,1.87,11.46,47.84626,-54.09684
2024-01-11 17:49:00+00:00,177.2665,1.88,11.46,47.84626,-54.09684
2024-01-11 17:59:00+00:00,182.6781,1.88,11.46,47.84626,-54.09684
2024-01-11 18:09:00+00:00,191.1681,1.89,11.46,47.84626,-54.09684
2024-01-11 18:19:00+00:00,180.3381,1.89,11.46,47.84626,-54.09684
2024-01-11 18:29:00+00:00,176.6232,1.89,11.46,47.84626,-54.09684
2024-01-11 18:39:00+00:00,183.9648,1.89,11.46,47.84626,-54.09684
2024-01-11 18:49:00+00:00,180.5348,1.89,11.46,47.84626,-54.09684
2024-01-11 18:59:00+00:00,177.1098,1.9,11.46,47.84626,-54.09684
2024-01-11 19:09:00+00:00,188.0315,1.9,11.46,47.84626,-54.09684
2024-01-11 19:19:00+00:00,193.7348,1.9,11.46,47.84626,-54.09684
2024-01-11 19:29:00+00:00,188.1648,1.9,11.46,47.84626,-54.09684
2024-01-11 19:39:00+00:00,189.4898,1.9,11.46,47.84626,-54.09684
2024-01-11 19:49:00+00:00,200.6165,1.9,11.46,47.84626,-54.09684
2024-01-11 19:59:00+00:00,203.1981,1.9,11.46,47.84626,-54.09684
2024-01-11 20:09:00+00:00,207.6747,1.9,11.46,47.84626,-54.09684
2024-01-11 20:19:00+00:00,222.7964,1.9,11.46,47.84626,-54.09684
2024-01-11 20:29:00+00:00,227.0015,1.9,11.46,47.84626,-54.09684
2024-01-11 20:39:00+00:00,223.2065,1.9,11.46,47.84626,-54.09684
2024-01-11 20:49:00+00:00,236.8514,1.9,11.46,47.84626,-54.09684
2024-01-11 20:59:00+00:00,251.4781,1.9,11.46,47.84626,-54.09684
2024-01-11 21:09:00+00:00,252.7097,1.9,11.46,47.84626,-54.09684
2024-01-11 21:19:00+00:00,261.3314,1.9,11.46,47.84626,-54.09684
2024-01-11 21:29:00+00:00,274.7581,1.9,11.46,47.84626,-54.09684
2024-01-11 21:39:00+00:00,280.6614,1.9,11.46,47.84626,-54.09684
2024-01-11 21:49:00+00:00,282.0447,1.9,11.46,47.84626,-54.09684
2024-01-11 21:59:00+00:00,297.158,1.9,11.46,47.84626,-54.09684
2024-01-11 22:09:00+00:00,308.0314,1.9,11.46,47.84626,-54.09684
2024-01-11 22:19:00+00:00,310.1213,1.9,11.37,47.84626,-54.09684
2024-01-11 22:29:00+00:00,318.483,1.91,11.37,47.84626,-54.09684
2024-01-11 22:39:00+00:00,331.0496,1.96,11.37,47.84626,-54.09684
2024-01-11 22:49:00+00:00,339.1547,1.99,11.37,47.84626,-54.09684
2024-01-11 22:59:00+00:00,336.1479,1.98,11.37,47.84626,-54.09684
2024-01-11 23:09:00+00:00,340.1297,1.97,11.37,47.84626,-54.09684
2024-01-11 23:19:00+00:00,353.3396,1.99,11.37,47.84626,-54.09684
2024-01-11 23:29:00+00:00,353.6063,2.0,11.37,47.84626,-54.09684
2024-01-11 23:39:00+00:00,347.0913,1.99,11.37,47.84626,-54.09684
2024-01-11 23:49:00+00:00,349.2596,1.99,11.37,47.84626,-54.09684
2024-01-11 23:59:00+00:00,357.6496,2.0,11.37,47.84626,-54.09684
